| time (UTC) | temp C | wind direction | speed KPH | gust KPH | rain 1hr cm | rain 24hr cm | rain mn cm | humidity % | barometer mb |
| 20260505065904 | 16 | 276 | 1.6 | 4.8 | 0.00 | 0.15 | 0.00 | 78 | 1022.2 |
| 20260505065405 | 16 | 273 | 4.8 | 11.3 | 0.00 | 0.15 | 0.00 | 78 | 1022.2 |
| 20260505064905 | 16 | 263 | 3.2 | 8.0 | 0.00 | 0.15 | 0.00 | 78 | 1022.2 |
| 20260505064404 | 16 | 280 | 4.8 | 8.0 | 0.00 | 0.15 | 0.00 | 79 | 1022.2 |
| 20260505063904 | 16 | 287 | 4.8 | 9.7 | 0.00 | 0.15 | 0.00 | 79 | 1022.2 |
| 20260505063404 | 16 | 301 | 8.0 | 11.3 | 0.00 | 0.15 | 0.00 | 78 | 1022.1 |
| 20260505062904 | 16 | 288 | 3.2 | 9.7 | 0.00 | 0.15 | 0.00 | 78 | 1022.1 |
| 20260505062404 | 16 | 285 | 8.0 | 11.3 | 0.00 | 0.15 | 0.00 | 78 | 1022.1 |
| 20260505061904 | 16 | 273 | 4.8 | 11.3 | 0.00 | 0.15 | 0.00 | 78 | 1022.1 |
| 20260505061404 | 16 | 293 | 6.4 | 14.5 | 0.00 | 0.18 | 0.00 | 77 | 1022.1 |
| 20260505060905 | 16 | 263 | 4.8 | 12.9 | 0.00 | 0.18 | 0.00 | 78 | 1022.1 |
| 20260505060405 | 16 | 273 | 6.4 | 12.9 | 0.00 | 0.20 | 0.00 | 77 | 1022.1 |
| 20260505055904 | 16 | 257 | 6.4 | 14.5 | 0.00 | 0.23 | 0.00 | 77 | 1022.1 |
| 20260505055404 | 16 | 258 | 8.0 | 12.9 | 0.00 | 0.23 | 0.00 | 78 | 1022.1 |
| 20260505054905 | 16 | 260 | 4.8 | 12.9 | 0.00 | 0.23 | 0.00 | 77 | 1022.1 |
| 20260505054404 | 16 | 267 | 8.0 | 14.5 | 0.00 | 0.23 | 0.00 | 77 | 1022.1 |
| 20260505053905 | 16 | 255 | 8.0 | 12.9 | 0.00 | 0.23 | 0.00 | 77 | 1022.0 |
| 20260505053405 | 16 | 287 | 9.7 | 14.5 | 0.00 | 0.23 | 0.00 | 78 | 1022.0 |
| 20260505052904 | 16 | 255 | 6.4 | 11.3 | 0.00 | 0.23 | 0.00 | 80 | 1021.9 |
| 20260505052405 | 15 | 247 | 3.2 | 9.7 | 0.00 | 0.43 | 0.00 | 79 | 1021.9 |
| 20260505051904 | 15 | 233 | 3.2 | 8.0 | 0.00 | 0.46 | 0.00 | 79 | 1021.9 |
| 20260505051404 | 15 | 261 | 4.8 | 14.5 | 0.00 | 0.46 | 0.00 | 79 | 1021.9 |
| 20260505050905 | 16 | 249 | 3.2 | 8.0 | 0.00 | 0.46 | 0.00 | 79 | 1021.8 |
| 20260505050404 | 15 | 255 | 3.2 | 8.0 | 0.00 | 0.46 | 0.00 | 79 | 1021.8 |
| 20260505041405 | 16 | 300 | 12.9 | 19.3 | 0.00 | 0.46 | 0.00 | 75 | 1021.6 |
| 20260505040904 | 16 | 272 | 4.8 | 12.9 | 0.00 | 0.46 | 0.00 | 74 | 1021.6 |
| 20260505040404 | 16 | 291 | 12.9 | 20.9 | 0.00 | 0.46 | 0.00 | 74 | 1021.6 |
| 20260505035905 | 16 | 296 | 11.3 | 19.3 | 0.00 | 0.46 | 0.00 | 74 | 1021.6 |
| 20260505035404 | 16 | 320 | 9.7 | 19.3 | 0.00 | 0.46 | 0.00 | 73 | 1021.6 |
| 20260505034904 | 16 | 343 | 12.9 | 19.3 | 0.00 | 0.46 | 0.00 | 73 | 1021.7 |
| 20260505034404 | 16 | 344 | 9.7 | 12.9 | 0.00 | 0.46 | 0.00 | 74 | 1021.8 |
| 20260505033904 | 16 | 271 | 8.0 | 12.9 | 0.00 | 0.46 | 0.00 | 76 | 1021.8 |
| 20260505033404 | 16 | 284 | 11.3 | 16.1 | 0.00 | 0.46 | 0.00 | 78 | 1021.9 |
| 20260505032904 | 16 | 295 | 8.0 | 12.9 | 0.00 | 0.46 | 0.00 | 76 | 1021.9 |
| 20260505032404 | 15 | 287 | 8.0 | 16.1 | 0.00 | 0.46 | 0.00 | 76 | 1022.0 |
| 20260505031904 | 15 | 270 | 8.0 | 12.9 | 0.00 | 0.46 | 0.00 | 77 | 1022.0 |
| 20260505031404 | 15 | 293 | 12.9 | 16.1 | 0.00 | 0.46 | 0.00 | 76 | 1022.0 |
| 20260505030904 | 15 | 282 | 8.0 | 14.5 | 0.00 | 0.46 | 0.00 | 76 | 1022.0 |
| 20260505030404 | 15 | 269 | 11.3 | 16.1 | 0.00 | 0.46 | 0.00 | 78 | 1022.1 |
| 20260505025904 | 15 | 274 | 9.7 | 14.5 | 0.00 | 0.46 | 0.00 | 77 | 1022.2 |
| 20260505025404 | 15 | 277 | 9.7 | 14.5 | 0.00 | 0.46 | 0.00 | 77 | 1022.2 |
| 20260505024904 | 15 | 269 | 8.0 | 12.9 | 0.00 | 0.46 | 0.00 | 78 | 1022.3 |
| 20260505024404 | 15 | 250 | 9.7 | 19.3 | 0.00 | 0.46 | 0.00 | 77 | 1022.3 |
| 20260505023904 | 15 | 266 | 9.7 | 22.5 | 0.00 | 0.48 | 0.00 | 78 | 1022.4 |
| 20260505023404 | 15 | 261 | 8.0 | 14.5 | 0.00 | 0.48 | 0.00 | 78 | 1022.4 |
| 20260505022904 | 15 | 263 | 8.0 | 19.3 | 0.00 | 0.48 | 0.00 | 77 | 1022.5 |
| 20260505022404 | 15 | 271 | 12.9 | 19.3 | 0.00 | 0.48 | 0.00 | 76 | 1022.5 |
| 20260505021904 | 15 | 283 | 11.3 | 19.3 | 0.00 | 0.48 | 0.00 | 75 | 1022.5 |
| 20260505021404 | 15 | 288 | 14.5 | 19.3 | 0.00 | 0.48 | 0.00 | 75 | 1022.5 |
| 20260505020905 | 15 | 265 | 6.4 | 12.9 | 0.00 | 0.48 | 0.00 | 75 | 1022.5 |
| 20260505020404 | 15 | 310 | 6.4 | 11.3 | 0.00 | 0.48 | 0.00 | 75 | 1022.5 |
| 20260505015904 | 15 | 297 | 4.8 | 11.3 | 0.00 | 0.48 | 0.00 | 75 | 1022.6 |
| 20260505015404 | 15 | 269 | 4.8 | 14.5 | 0.00 | 0.48 | 0.00 | 75 | 1022.7 |
| 20260505014904 | 15 | 279 | 9.7 | 20.9 | 0.00 | 0.48 | 0.00 | 76 | 1022.7 |
| 20260505014404 | 15 | 278 | 4.8 | 11.3 | 0.00 | 0.48 | 0.00 | 77 | 1022.7 |
| 20260505013904 | 15 | 278 | 6.4 | 11.3 | 0.00 | 0.48 | 0.00 | 76 | 1022.8 |
| 20260505013404 | 15 | 255 | 3.2 | 8.0 | 0.00 | 0.48 | 0.00 | 76 | 1022.9 |
| 20260505012904 | 15 | 276 | 8.0 | 9.7 | 0.00 | 0.48 | 0.00 | 76 | 1022.8 |
| 20260505012404 | 15 | 288 | 8.0 | 12.9 | 0.00 | 0.48 | 0.00 | 77 | 1022.8 |
| 20260505011904 | 15 | 263 | 4.8 | 12.9 | 0.00 | 0.48 | 0.00 | 77 | 1022.8 |
| 20260505011404 | 15 | 270 | 8.0 | 12.9 | 0.00 | 0.51 | 0.00 | 76 | 1022.7 |
| 20260505010904 | 14 | 274 | 4.8 | 8.0 | 0.00 | 0.58 | 0.00 | 77 | 1022.7 |
| 20260505010404 | 14 | 266 | 4.8 | 8.0 | 0.00 | 0.64 | 0.00 | 78 | 1022.6 |
| 20260505005904 | 14 | 261 | 4.8 | 8.0 | 0.00 | 0.64 | 0.00 | 77 | 1022.6 |
| 20260505005404 | 14 | 260 | 4.8 | 8.0 | 0.00 | 0.64 | 0.00 | 79 | 1022.6 |
| 20260505004904 | 13 | 258 | 4.8 | 8.0 | 0.00 | 0.64 | 0.00 | 79 | 1022.6 |
| 20260505004404 | 13 | 263 | 3.2 | 4.8 | 0.00 | 0.64 | 0.00 | 80 | 1022.6 |
| 20260505003904 | 13 | 257 | 3.2 | 4.8 | 0.00 | 0.64 | 0.00 | 81 | 1022.6 |
| 20260505003404 | 13 | 274 | 3.2 | 8.0 | 0.00 | 0.64 | 0.00 | 82 | 1022.6 |
| 20260505002904 | 13 | 278 | 1.6 | 4.8 | 0.00 | 0.66 | 0.00 | 83 | 1022.5 |
| 20260505002404 | 13 | 277 | 1.6 | 8.0 | 0.00 | 0.66 | 0.00 | 84 | 1022.6 |
| 20260505001904 | 13 | 278 | 3.2 | 9.7 | 0.00 | 0.66 | 0.00 | 84 | 1022.6 |
| 20260505001404 | 13 | 245 | 3.2 | 4.8 | 0.00 | 0.66 | 0.00 | 85 | 1022.6 |
| 20260505000904 | 12 | 237 | 3.2 | 4.8 | 0.00 | 0.69 | 0.00 | 85 | 1022.6 |
| 20260505000405 | 12 | 233 | 3.2 | 4.8 | 0.00 | 0.71 | 0.00 | 86 | 1022.6 |
| 20260504235904 | 12 | 232 | 4.8 | 8.0 | 0.00 | 0.71 | 0.00 | 86 | 1022.6 |
| 20260504235404 | 12 | 221 | 4.8 | 8.0 | 0.00 | 0.71 | 0.00 | 87 | 1022.6 |
| 20260504234904 | 12 | 209 | 4.8 | 8.0 | 0.00 | 0.71 | 0.00 | 87 | 1022.6 |
| 20260504234405 | 12 | 233 | 3.2 | 8.0 | 0.00 | 0.71 | 0.00 | 88 | 1022.6 |
| 20260504233904 | 12 | 229 | 4.8 | 8.0 | 0.00 | 0.71 | 0.00 | 88 | 1022.5 |
| 20260504233404 | 12 | 240 | 3.2 | 9.7 | 0.00 | 0.71 | 0.00 | 88 | 1022.5 |
| 20260504232904 | 12 | 235 | 4.8 | 11.3 | 0.00 | 0.71 | 0.71 | 88 | 1022.4 |
| 20260504232404 | 12 | 267 | 8.0 | 11.3 | 0.00 | 0.71 | 0.71 | 89 | 1022.4 |
| 20260504231904 | 12 | 233 | 1.6 | 8.0 | 0.00 | 0.71 | 0.71 | 89 | 1022.4 |
| 20260504231404 | 12 | 248 | 3.2 | 4.8 | 0.00 | 0.71 | 0.71 | 90 | 1022.3 |
| 20260504230904 | 12 | 247 | 6.4 | 11.3 | 0.00 | 0.71 | 0.71 | 90 | 1022.3 |
| 20260504230404 | 12 | 270 | 3.2 | 8.0 | 0.00 | 0.71 | 0.71 | 92 | 1022.2 |
| 20260504225905 | 12 | 270 | 4.8 | 8.0 | 0.00 | 0.71 | 0.71 | 90 | 1022.2 |
| 20260504160405 | 10 | 320 | 4.8 | 8.0 | 0.00 | 0.71 | 0.69 | 89 | 1018.8 |
| 20260504150905 | 11 | 306 | 8.0 | 12.9 | 0.00 | 0.71 | 0.69 | 89 | 1018.4 |
| 20260504150405 | 11 | 308 | 8.0 | 12.9 | 0.00 | 0.71 | 0.69 | 89 | 1018.4 |
| 20260504140905 | 11 | 316 | 8.0 | 11.3 | 0.00 | 0.71 | 0.69 | 89 | 1018.2 |
| 20260504140405 | 11 | 320 | 8.0 | 12.9 | 0.00 | 0.71 | 0.69 | 89 | 1018.2 |
| 20260504130405 | 10 | 316 | 4.8 | 8.0 | 0.00 | 0.71 | 0.69 | 88 | 1018.0 |
| 20260504110405 | 11 | 320 | 9.7 | 14.5 | 0.00 | 0.71 | 0.69 | 87 | 1016.7 |
| 20260504100405 | 12 | 307 | 4.8 | 11.3 | 0.00 | 0.71 | 0.69 | 85 | 1016.0 |
| 20260504081905 | 13 | 273 | 9.7 | 20.9 | 0.03 | 0.71 | 0.69 | 86 | 1014.4 |
| 20260504081405 | 13 | 279 | 9.7 | 19.3 | 0.05 | 0.71 | 0.69 | 86 | 1014.2 |
| 20260504080905 | 13 | 282 | 11.3 | 19.3 | 0.08 | 0.71 | 0.69 | 86 | 1014.1 |
| 20260504080404 | 13 | 282 | 11.3 | 19.3 | 0.10 | 0.71 | 0.69 | 86 | 1014.1 |
| 20260504070405 | 15 | 237 | 12.9 | 25.7 | 0.05 | 0.61 | 0.58 | 85 | 1013.5 |